OE3UKW Weather Reports


Display with metric or nautical units.
time (UTC)temp
F
wind
direction
speed
MPH
gust
MPH
rain 1hr
in
rain 24hr
in
rain mn
in
humidity
%
barometer
mb
20260508161112 70 48 7.0 10.0 0.00 0.00 0.00 30 1016.2
20260508160112 70 49 8.0 12.0 0.00 0.00 0.00 29 1016.5
20260508155111 70 32 4.0 10.0 0.00 0.00 0.00 29 1016.5
20260508154112 71 28 7.0 15.0 0.00 0.00 0.00 29 1016.4
20260508152111 71 312 8.0 11.0 0.00 0.00 0.00 30 1016.5
20260508151126 71 28 8.0 14.0 0.00 0.00 0.00 28 1016.7
20260508150111 71 57 8.0 10.0 0.00 0.00 0.00 28 1016.7
20260508145111 72 24 10.0 16.0 0.00 0.00 0.00 27 1016.8
20260508143111 71 51 3.0 14.0 0.00 0.00 0.00 28 1016.9
20260508142111 72 355 7.0 14.0 0.00 0.00 0.00 27 1016.9
20260508141111 73 323 4.0 14.0 0.00 0.00 0.00 26 1017.0
20260508140111 74 333 12.0 14.0 0.00 0.00 0.00 27 1017.2
20260508135111 74 317 1.0 10.0 0.00 0.00 0.00 26 1017.1
20260508133111 72 10 6.0 12.0 0.00 0.00 0.00 30 1017.3
20260508132111 73 19 10.0 15.0 0.00 0.00 0.00 28 1017.4
20260508131111 72 343 3.0 9.0 0.00 0.00 0.00 32 1017.5
20260508130111 72 15 10.0 13.0 0.00 0.00 0.00 29 1017.6
20260508125111 72 253 4.0 10.0 0.00 0.00 0.00 31 1017.7
20260508124111 71 344 6.0 14.0 0.00 0.00 0.00 31 1017.7
20260508123111 70 355 9.0 14.0 0.00 0.00 0.00 32 1017.6
20260508122111 70 328 8.0 13.0 0.00 0.00 0.00 32 1017.7
20260508121111 71 335 5.0 11.0 0.00 0.00 0.00 30 1017.7
20260508120111 72 5 4.0 10.0 0.00 0.00 0.00 32 1017.8
20260508115111 72 328 7.0 13.0 0.00 0.00 0.00 34 1017.8
20260508114111 71 337 5.0 13.0 0.00 0.00 0.00 33 1017.8
20260508113111 70 348 7.0 15.0 0.00 0.00 0.00 35 1017.7
20260508112111 69 323 6.0 11.0 0.00 0.00 0.00 35 1017.6
20260508111111 69 291 1.0 11.0 0.00 0.00 0.00 35 1017.8
20260508110111 69 260 8.0 10.0 0.00 0.00 0.00 35 1017.9
20260508105111 68 325 4.0 7.0 0.00 0.00 0.00 38 1017.9
20260508104111 67 300 9.0 11.0 0.00 0.00 0.00 38 1018.1
20260508103111 68 290 3.0 11.0 0.00 0.00 0.00 37 1018.3
20260508102111 68 263 8.0 15.0 0.00 0.00 0.00 38 1018.3
20260508101111 68 311 4.0 7.0 0.00 0.00 0.00 38 1018.1
20260508100110 68 263 4.0 11.0 0.00 0.00 0.00 39 1018.2
20260508095111 68 282 4.0 8.0 0.00 0.00 0.00 38 1018.3
20260508094111 68 27 3.0 9.0 0.00 0.00 0.00 38 1018.4
20260508093111 68 248 7.0 11.0 0.00 0.00 0.00 42 1018.5
20260508092111 68 298 9.0 14.0 0.00 0.00 0.00 41 1018.5
20260508091110 68 265 5.0 16.0 0.00 0.00 0.00 42 1018.5
20260508090110 67 292 6.0 10.0 0.00 0.00 0.00 43 1018.4
20260508085111 67 250 3.0 13.0 0.00 0.00 0.00 41 1018.3
20260508084110 66 317 5.0 12.0 0.00 0.00 0.00 41 1018.3
20260508083110 66 24 3.0 8.0 0.00 0.00 0.00 42 1018.3
20260508082110 66 296 9.0 13.0 0.00 0.00 0.00 44 1018.2
20260508081110 66 308 6.0 9.0 0.00 0.00 0.00 43 1018.3
20260508080111 66 294 8.0 11.0 0.00 0.00 0.00 43 1018.3
20260508075110 65 304 5.0 9.0 0.00 0.00 0.00 43 1018.3
20260508074110 65 342 5.0 10.0 0.00 0.00 0.00 46 1018.2
20260508073110 64 242 1.0 10.0 0.00 0.00 0.00 48 1018.2
20260508072110 63 299 3.0 9.0 0.00 0.00 0.00 49 1018.2
20260508071110 63 360 5.0 12.0 0.00 0.00 0.00 48 1018.3
20260508070110 62 303 6.0 9.0 0.00 0.00 0.00 51 1018.3
20260508065110 61 335 7.0 10.0 0.00 0.00 0.00 51 1018.2
20260508064110 61 329 4.0 11.0 0.00 0.00 0.00 51 1018.1
20260508063110 60 355 6.0 10.0 0.00 0.00 0.00 53 1018.0
20260508062110 59 348 6.0 11.0 0.00 0.00 0.00 54 1018.0
20260508061110 59 346 6.0 10.0 0.00 0.00 0.00 55 1018.0
20260508060110 58 336 10.0 12.0 0.00 0.00 0.00 56 1017.9
20260508054110 56 360 7.0 9.0 0.00 0.00 0.00 57 1017.8
20260508053110 56 333 6.0 10.0 0.00 0.00 0.00 58 1017.7
20260508052110 55 316 7.0 10.0 0.00 0.00 0.00 59 1017.8
20260508051110 54 355 5.0 9.0 0.00 0.00 0.00 60 1017.5
20260508050110 53 322 4.0 6.0 0.00 0.00 0.00 61 1017.4
20260508045110 52 314 6.0 9.0 0.00 0.00 0.00 62 1017.4
20260508044110 51 355 6.0 8.0 0.00 0.00 0.00 63 1017.6
20260508043125 50 336 5.0 6.0 0.00 0.00 0.00 64 1017.6
20260508042110 49 346 6.0 8.0 0.00 0.00 0.00 65 1017.3
20260508041125 49 355 4.0 7.0 0.00 0.00 0.00 65 1017.3
20260508040110 48 344 4.0 6.0 0.00 0.00 0.00 66 1017.3
20260508035110 48 321 5.0 8.0 0.00 0.00 0.00 65 1017.2
20260508034110 48 312 3.0 4.0 0.00 0.00 0.00 65 1017.2
20260508033110 48 19 3.0 4.0 0.00 0.00 0.00 65 1017.0
20260508032110 48 16 3.0 5.0 0.00 0.00 0.00 65 1016.8
20260508031110 49 337 3.0 6.0 0.00 0.00 0.00 64 1016.9
20260508030110 49 329 3.0 4.0 0.00 0.00 0.00 62 1017.0
20260508025109 49 340 4.0 5.0 0.00 0.00 0.00 62 1016.8
20260508024110 50 333 3.0 4.0 0.00 0.00 0.00 60 1016.9
20260508023109 51 327 2.0 3.0 0.00 0.00 0.00 59 1016.8
20260508022110 51 326 3.0 3.0 0.00 0.00 0.00 60 1016.8
20260508021109 52 327 1.0 3.0 0.00 0.00 0.00 60 1016.8
20260508020109 52 326 3.0 5.0 0.00 0.00 0.00 59 1016.8
20260508015109 53 306 6.0 8.0 0.00 0.00 0.00 58 1016.8
20260508014109 53 308 5.0 7.0 0.00 0.00 0.00 58 1016.8
20260508013109 53 301 5.0 8.0 0.00 0.00 0.00 58 1016.7
20260508012124 54 295 8.0 11.0 0.00 0.00 0.00 58 1016.7
20260508011109 54 313 6.0 6.0 0.00 0.00 0.00 57 1016.4
20260508005112 55 327 6.0 11.0 0.00 0.00 0.00 57 1016.4
20260508004127 55 300 9.0 11.0 0.00 0.00 0.00 57 1016.5
20260508003112 55 290 7.0 10.0 0.00 0.00 0.00 57 1016.2
20260508002112 55 310 8.0 10.0 0.00 0.00 0.00 57 1016.2
20260508001112 56 307 5.0 10.0 0.00 0.00 0.00 57 1016.3
20260508000112 56 305 6.0 9.0 0.00 0.00 0.00 57 1016.1
20260507235112 56 307 7.0 11.0 0.00 0.00 0.00 58 1016.2
20260507234112 56 302 6.0 14.0 0.00 0.00 0.00 58 1016.3
20260507233112 56 288 8.0 13.0 0.00 0.00 0.00 59 1016.2
20260507232112 56 277 9.0 11.0 0.00 0.00 0.00 59 1016.2
20260507231112 56 269 6.0 11.0 0.00 0.00 0.00 60 1016.3
20260507230112 56 265 7.0 10.0 0.00 0.00 0.00 61 1016.2
20260507225112 56 216 7.0 14.0 0.00 0.00 0.00 62 1016.1
20260507224112 56 250 8.0 11.0 0.00 0.00 0.00 63 1016.2
20260507223112 56 244 9.0 12.0 0.00 0.00 0.00 64 1016.0
20260507222112 56 242 9.0 13.0 0.00 0.00 0.00 64 1015.9
20260507221112 56 235 10.0 13.0 0.00 0.00 0.00 64 1015.8
20260507220112 56 234 10.0 15.0 0.00 0.00 0.00 64 1015.7
20260507215112 56 226 13.0 17.0 0.00 0.00 0.00 65 1015.6
20260507214112 56 238 15.0 18.0 0.00 0.00 0.00 66 1015.7
20260507213112 56 231 15.0 19.0 0.00 0.00 0.00 66 1015.6
20260507212112 56 223 17.0 19.0 0.00 0.00 0.00 66 1015.6
20260507211112 56 219 18.0 22.0 0.00 0.00 0.00 67 1015.6
20260507210112 56 224 14.0 20.0 0.00 0.00 0.00 68 1015.4
20260507205112 56 221 13.0 17.0 0.00 0.00 0.00 68 1015.5
20260507204112 56 241 13.0 19.0 0.00 0.00 0.00 67 1015.6
20260507203111 56 213 12.0 18.0 0.00 0.00 0.00 67 1015.4
20260507202111 57 226 14.0 16.0 0.00 0.00 0.00 67 1015.4
20260507201111 57 216 8.0 14.0 0.00 0.00 0.00 66 1015.3
20260507200112 58 231 9.0 11.0 0.00 0.00 0.00 66 1015.3
20260507195111 58 236 7.0 12.0 0.00 0.00 0.00 65 1015.1
20260507194112 58 210 10.0 14.0 0.00 0.00 0.00 64 1014.9
20260507193111 58 219 9.0 15.0 0.00 0.00 0.00 64 1014.9
20260507192111 58 235 11.0 14.0 0.00 0.00 0.00 63 1014.7
20260507191112 58 193 11.0 14.0 0.00 0.00 0.00 63 1014.6
20260507190111 58 234 9.0 12.0 0.00 0.00 0.00 62 1014.5
20260507185111 58 235 9.0 14.0 0.00 0.00 0.00 62 1014.4
20260507184111 59 207 12.0 17.0 0.00 0.00 0.00 62 1014.2
20260507183111 59 233 11.0 15.0 0.00 0.00 0.00 61 1014.1
20260507182111 60 220 10.0 14.0 0.00 0.00 0.00 60 1014.1
20260507181111 60 199 8.0 13.0 0.00 0.00 0.00 58 1014.1
20260507180111 61 229 9.0 13.0 0.00 0.00 0.00 55 1013.8
20260507175111 62 221 13.0 15.0 0.00 0.00 0.00 51 1013.9
20260507174111 63 216 9.0 14.0 0.00 0.00 0.00 48 1013.9
20260507173111 63 213 10.0 13.0 0.00 0.00 0.00 45 1013.8
20260507172111 64 215 9.0 14.0 0.00 0.00 0.00 43 1013.7
20260507171111 64 222 8.0 15.0 0.00 0.00 0.00 42 1013.5
20260507170111 65 233 12.0 15.0 0.00 0.00 0.00 41 1013.4
20260507165111 66 211 12.0 17.0 0.00 0.00 0.00 39 1013.2
20260507164111 67 217 12.0 16.0 0.00 0.00 0.00 38 1013.1
20260507163111 68 218 10.0 13.0 0.00 0.00 0.00 35 1013.0
20260507162111 68 201 9.0 13.0 0.00 0.00 0.00 34 1012.8